星链-33617 (STARLINK-33617)

导读

STARLINK-33617是美国于2025年3月26日发射的SpaceX星链卫星,隶属于星链互联网星座项目。星链项目旨在为全球提供高速低延迟宽带互联网服务,该卫星发射后将进一步扩大星链星座在轨卫星规模,提升星座网络覆盖范围与服务能力,推动全球卫星互联网基础设施建设。

Basic Information
目录编号:
63373
目录名称:
STARLINK-33617
国际标识:
2025-063L
轨道中心:
EARTH
卫星名称:
星链-33617
卫星全名:
星链-33617 (STARLINK-33617)
卫星状态:
在轨 (已飞行527 天)
发射日期:
2025-03-26 UTC
国别 :
美国 (US)
星等 :
--
Orbit Information
数据来源 国际轨道数据
星历时间: 2026-09-03T21:22:23+0800
17小时前
查看轨道信息
半长轴: 6840.834km
偏心率: 0.0000117
轨道倾角: 53.160°
近地点辐角 14.879°
升交点赤经 301.184°
平近点角 345.222°
近地点: 462.616km
远地点: 462.778km
周期: 93.848分钟
每日圈数: 15.344023
Detailed Information
固有亮度:
5
最大亮度:
2.5
卫星平台:
Starlink V1.0
覆盖范围:
全球
运营商:
太空探索技术公司
运营商所在国:
美国
制造商(研发单位):
太空探索技术公司
制造商所在国:
美国
使用方式:
暂无
Satellite Introduction
Starlink 计划是 SpaceX 推出的全球卫星互联网项目,通过发射低轨道卫星,为全球尤其是偏远地区提供高速、低延迟的互联网服务。自 2019 年起,Starlink 已部署数千颗卫星,旨在缩小全球数字鸿沟,推动互联网普及。该项目还为军事、航空等行业提供通信支持,带来广泛经济效益。
2D Orbit Map
3D Orbit Map
Orbit Altitude Analysis Chart
Orbit Inclination Analysis Chart
Orbit Comprehensive Analysis Chart
View Comprehensive Chart
Conjunction Data List
Event ID Objects TCA Miss Dist (km) Collision Risk Probability Collision Risk Index (CRI) Action
CDM_260905-003806-337306-547121
2026-09-05T
00:38:27+0000
1.330 km
极远距离
8.623604E-6 低风险 0.54
CDM_260905-081605-884306-337321
2026-09-05T
08:16:21+0000
2.435 km
极远距离
1.622043E-6 低风险 0.39
CDM_260905-073804-940906-337321
2026-09-05T
07:38:31+0000
2.620 km
极远距离
1.438075E-6 低风险 0.38
CDM_260904-042205-380606-337321
2026-09-04T
04:22:10+0000
2.751 km
极远距离
1.286151E-6 低风险 0.37